SP3WRO-13 Weather Reports


Display with metric or nautical units.
time (UTC)temp
F
wind
direction
speed
MPH
gust
MPH
rain 1hr
in
rain 24hr
in
rain mn
in
humidity
%
barometer
mb
20260902031609 54 318 0.0 0.0 0.00 0.25 0.00 96 1015.1
20260902030109 55 318 0.0 0.0 0.00 0.25 0.00 96 1015.0
20260902024609 56 320 0.0 0.0 0.00 0.25 0.00 95 1015.0
20260902023109 56 48 0.0 4.0 0.00 0.25 0.00 94 1015.0
20260902021608 57 282 1.0 4.0 0.00 0.25 0.00 93 1015.0
20260902020147 57 312 0.0 0.0 0.00 0.25 0.00 97 1014.9
20260902020108 57 312 0.0 0.0 0.00 0.25 0.00 97 1014.9
20260902014608 57 12 0.0 0.0 0.00 0.25 0.00 97 1014.9
20260902013108 58 12 0.0 0.0 0.00 0.25 0.00 97 1014.9
20260902011608 57 102 0.0 0.0 0.00 0.25 0.00 97 1014.8
20260902010108 57 54 0.0 0.0 0.00 0.25 0.00 97 1014.7
20260902004608 57 78 0.0 0.0 0.00 0.25 0.00 97 1014.7
20260902003108 57 78 0.0 0.0 0.00 0.25 0.00 97 1014.7
20260902001608 57 85 0.0 0.0 0.00 0.25 0.00 97 1014.7
20260902000108 58 342 0.0 0.0 0.00 0.25 0.00 97 1014.7
20260901234640 57 111 0.0 0.0 0.00 0.25 0.00 97 1014.7
20260901234608 57 111 0.0 0.0 0.00 0.25 0.00 97 1014.7
20260901233108 58 18 0.0 0.0 0.00 0.25 0.00 97 1014.6
20260901231608 58 15 0.0 0.0 0.00 0.25 0.00 97 1014.5
20260901230108 58 96 0.0 0.0 0.00 0.25 0.00 97 1014.6
20260901224608 58 96 0.0 0.0 0.00 0.25 0.00 97 1014.6
20260901223108 57 102 0.0 0.0 0.00 0.25 0.00 97 1014.7
20260901221608 57 96 0.0 0.0 0.00 0.25 0.00 96 1014.7
20260901220225 57 9 0.0 0.0 0.00 0.25 0.00 96 1014.6
20260901220108 57 9 0.0 0.0 0.00 0.25 0.00 96 1014.6
20260901214741 57 318 0.0 0.0 0.00 0.25 0.00 96 1014.6
20260901214608 57 318 0.0 0.0 0.00 0.25 0.00 96 1014.6
20260901213107 58 306 0.0 0.0 0.01 0.25 0.00 96 1014.4
20260901211607 59 4 0.0 0.0 0.01 0.25 0.00 96 1014.3
20260901210107 60 70 0.0 2.0 0.04 0.25 0.00 95 1014.4
20260901204607 60 49 0.0 1.0 0.04 0.25 0.00 94 1014.5
20260901203107 60 180 0.0 2.0 0.03 0.24 0.00 93 1014.2
20260901201607 61 180 0.0 3.0 0.02 0.23 0.00 86 1014.4
20260901200107 62 330 1.0 5.0 0.00 0.21 0.00 83 1014.3
20260901194607 59 264 1.0 6.0 0.00 0.21 0.00 88 1014.0
20260901193107 58 96 0.0 0.0 0.00 0.21 0.00 95 1013.7
20260901191607 58 48 0.0 0.0 0.00 0.21 0.00 95 1013.7
20260901190106 58 48 0.0 0.0 0.00 0.21 0.00 95 1013.6
20260901184637 59 48 0.0 0.0 0.00 0.21 0.00 95 1013.5
20260901184606 59 48 0.0 0.0 0.00 0.21 0.00 95 1013.5
20260901183106 59 9 0.0 0.0 0.00 0.21 0.00 94 1013.3
20260901181606 59 9 0.0 0.0 0.00 0.21 0.00 93 1013.2
20260901180104 60 324 0.0 0.0 0.00 0.21 0.00 92 1013.1
20260901174604 61 318 0.0 0.0 0.00 0.21 0.00 91 1013.0
20260901173104 62 6 0.0 0.0 0.00 0.21 0.00 88 1012.8
20260901171637 64 5 0.0 0.0 0.00 0.21 0.00 85 1012.7
20260901171604 64 5 0.0 0.0 0.00 0.21 0.00 85 1012.7
20260901170104 65 133 0.0 0.0 0.00 0.21 0.00 81 1012.6
20260901164603 67 208 0.0 2.0 0.00 0.21 0.00 76 1012.7
20260901163103 68 67 1.0 4.0 0.00 0.21 0.00 72 1012.7
20260901161603 69 174 1.0 5.0 0.00 0.21 0.00 71 1012.7
20260901160103 69 264 1.0 4.0 0.00 0.21 0.00 70 1012.6
20260901154603 69 337 2.0 6.0 0.00 0.21 0.00 68 1012.6
20260901153103 69 261 2.0 7.0 0.00 0.21 0.00 72 1012.5
20260901151603 69 282 2.0 7.0 0.00 0.21 0.00 70 1012.5
20260901150103 70 244 1.0 6.0 0.00 0.21 0.00 68 1012.5
20260901144603 68 259 1.0 5.0 0.00 0.21 0.00 70 1012.6
20260901143103 67 276 1.0 5.0 0.00 0.21 0.00 76 1012.8
20260901141603 66 246 0.0 3.0 0.00 0.21 0.00 83 1012.7
20260901140103 66 282 2.0 7.0 0.00 0.21 0.00 83 1012.7
20260901134603 67 238 3.0 7.0 0.00 0.21 0.00 81 1012.8
20260901133103 66 290 2.0 9.0 0.10 0.21 0.00 85 1012.8
20260901131603 64 282 1.0 4.0 0.12 0.21 0.00 90 1012.9
20260901124602 60 198 3.0 14.0 0.12 0.21 0.00 93 1013.0
20260901123134 62 282 4.0 15.0 0.03 0.12 0.00 87 1013.3
20260901123102 62 282 4.0 15.0 0.03 0.12 0.00 87 1013.3
20260901121600 68 249 3.0 9.0 0.00 0.09 0.00 73 1012.5
20260901120100 68 166 4.0 10.0 0.00 0.09 0.00 73 1012.6
20260901114600 68 199 3.0 9.0 0.00 0.09 0.00 76 1012.6
20260901113100 67 253 3.0 9.0 0.00 0.09 0.00 75 1012.7
20260901111600 66 30 4.0 10.0 0.00 0.09 0.00 78 1012.7
20260901110100 65 245 4.0 9.0 0.00 0.09 0.00 83 1012.7
20260901104600 65 288 2.0 9.0 0.00 0.09 0.00 84 1012.7
20260901103100 65 252 3.0 10.0 0.01 0.09 0.00 84 1012.5
20260901101600 64 286 2.0 7.0 0.03 0.09 0.00 88 1012.4
20260901100059 63 343 3.0 10.0 0.06 0.09 0.00 90 1012.4
20260901094559 61 264 2.0 6.0 0.06 0.09 0.00 92 1012.2
20260901093059 61 196 2.0 7.0 0.06 0.08 0.00 93 1012.2
20260901091558 63 207 2.0 6.0 0.01 0.03 0.00 89 1012.1
20260901090058 61 186 2.0 6.0 0.01 0.03 0.00 90 1012.0
20260901084558 63 26 3.0 9.0 0.00 0.02 0.00 84 1011.8
20260901083058 63 196 3.0 6.0 0.00 0.02 0.00 83 1011.8
20260901081558 62 199 2.0 7.0 0.00 0.02 0.00 87 1011.7
20260901080058 62 300 3.0 7.0 0.00 0.02 0.00 86 1011.7
20260901074558 61 288 4.0 9.0 0.00 0.02 0.00 88 1011.5
20260901073058 60 288 3.0 7.0 0.00 0.02 0.00 89 1011.2
20260901071558 60 300 2.0 9.0 0.00 0.02 0.00 92 1011.1
20260901070058 59 234 2.0 6.0 0.02 0.02 0.00 93 1010.9
20260901064558 59 243 1.0 6.0 0.02 0.02 0.00 94 1010.8
20260901063058 58 225 1.0 4.0 0.02 0.02 0.00 95 1010.6
20260901061558 58 207 1.0 5.0 0.01 0.01 0.00 93 1010.4
20260901060058 58 218 2.0 6.0 0.00 0.00 0.00 91 1010.2
20260901054558 58 216 1.0 4.0 0.00 0.00 0.00 89 1010.1
20260901053057 58 281 1.0 6.0 0.00 0.00 0.00 90 1010.1
20260901051557 58 192 1.0 5.0 0.00 0.00 0.00 89 1010.0
20260901050056 58 210 1.0 4.0 0.00 0.00 0.00 90 1009.9
20260901044556 58 210 1.0 4.0 0.00 0.00 0.00 90 1009.7
20260901043056 57 198 1.0 4.0 0.00 0.00 0.00 90 1009.7
20260901041556 57 216 1.0 4.0 0.00 0.00 0.00 91 1009.6
20260901040056 57 240 1.0 5.0 0.00 0.00 0.00 91 1009.5
20260901034556 57 204 1.0 4.0 0.00 0.00 0.00 91 1009.6
20260901033056 57 202 1.0 4.0 0.00 0.00 0.00 90 1009.4